When you browse on this site, cookies collect data to enhance your experience and personalize the content and advertising you see.
Visit our Privacy Policy to learn more. By continuing to use the site, you agree to this use of cookies and data.
  • In Österreich
  • Länderverzeichnis
  • Für 7 Tage
  • Wassertemperatur
  • Satellitenkarten
  • Wetterkarte
  • News
  • Widgets
  • user-avatar
    Anmelden

    Stündliche Wetter Suisun City

    Heute, 18 April, Donnerstag

    Zeit Temperatur Niederschläge Wind Luftdruck Luftfeuchtigkeit
    00:00 +15°C° 0 mm 1 m/S 765 mmHg 74%
    01:00 +14°C° 0 mm 1 m/S 765 mmHg 73%
    02:00 +14°C° 0 mm 1 m/S 765 mmHg 74%
    03:00 +14°C° 0 mm 1 m/S 765 mmHg 74%
    04:00 +12°C° 0 mm 0 m/S 765 mmHg 75%
    05:00 +14°C° 0 mm 1 m/S 765 mmHg 73%
    06:00 +15°C° 0 mm 1 m/S 765 mmHg 72%
    07:00 +16°C° 0 mm 1 m/S 765 mmHg 70%
    08:00 +20°C° 0 mm 1 m/S 764 mmHg 65%
    09:00 +22°C° 0 mm 1 m/S 764 mmHg 60%
    10:00 +24°C° 0 mm 2 m/S 764 mmHg 55%
    11:00 +26°C° 0 mm 2 m/S 764 mmHg 51%
    12:00 +27°C° 0 mm 2 m/S 764 mmHg 48%
    13:00 +29°C° 0 mm 1 m/S 763 mmHg 44%
    14:00 +29°C° 0 mm 1 m/S 763 mmHg 44%
    15:00 +29°C° 0 mm 1 m/S 763 mmHg 44%
    16:00 +29°C° 0 mm 1 m/S 762 mmHg 43%
    17:00 +27°C° 0 mm 1 m/S 762 mmHg 51%
    18:00 +25°C° 0 mm 1 m/S 762 mmHg 58%
    19:00 +22°C° 0 mm 1 m/S 762 mmHg 66%
    20:00 +21°C° 0 mm 1 m/S 762 mmHg 70%
    21:00 +21°C° 0 mm 1 m/S 762 mmHg 73%
    22:00 +20°C° 0 mm 1 m/S 763 mmHg 77%
    23:00 +19°C° 0 mm 1 m/S 762 mmHg 79%

    Morgen, 19 April, Freitag

    Zeit Temperatur Niederschläge Wind Luftdruck Luftfeuchtigkeit
    00:00 +18°C° 0 mm 1 m/S 762 mmHg 81%
    01:00 +18°C° 0 mm 1 m/S 762 mmHg 83%
    02:00 +16°C° 0 mm 1 m/S 762 mmHg 84%
    03:00 +16°C° 0 mm 1 m/S 761 mmHg 85%
    04:00 +16°C° 0 mm 1 m/S 761 mmHg 86%
    05:00 +18°C° 0 mm 1 m/S 761 mmHg 84%
    06:00 +18°C° 0 mm 1 m/S 761 mmHg 81%
    07:00 +19°C° 0 mm 1 m/S 761 mmHg 79%
    08:00 +20°C° 0 mm 0 m/S 760 mmHg 71%
    09:00 +22°C° 0 mm 0 m/S 760 mmHg 64%
    10:00 +25°C° 0 mm 0 m/S 760 mmHg 56%
    11:00 +28°C° 0 mm 1 m/S 760 mmHg 50%
    12:00 +29°C° 0 mm 1 m/S 759 mmHg 44%
    13:00 +30°C° 0 mm 2 m/S 759 mmHg 39%
    14:00 +29°C° 0 mm 2 m/S 758 mmHg 39%
    15:00 +29°C° 0 mm 3 m/S 758 mmHg 39%
    16:00 +28°C° 0 mm 3 m/S 757 mmHg 40%
    17:00 +26°C° 0 mm 3 m/S 757 mmHg 49%
    18:00 +22°C° 0 mm 3 m/S 757 mmHg 58%
    19:00 +19°C° 0 mm 2 m/S 757 mmHg 67%
    20:00 +18°C° 0 mm 2 m/S 757 mmHg 73%
    21:00 +17°C° 0 mm 2 m/S 757 mmHg 79%
    22:00 +16°C° 0 mm 2 m/S 758 mmHg 85%
    23:00 +15°C° 0 mm 2 m/S 757 mmHg 86%

    übermorgen, 20 April, Samstag

    Zeit Temperatur Niederschläge Wind Luftdruck Luftfeuchtigkeit
    00:00 +15°C° 0 mm 2 m/S 757 mmHg 88%
    01:00 +14°C° 0 mm 2 m/S 757 mmHg 90%
    02:00 +13°C° 0 mm 3 m/S 757 mmHg 90%
    03:00 +13°C° 0 mm 3 m/S 757 mmHg 91%
    04:00 +12°C° 0 mm 3 m/S 757 mmHg 92%
    05:00 +13°C° 0 mm 3 m/S 757 mmHg 89%
    06:00 +13°C° 0 mm 3 m/S 757 mmHg 86%
    07:00 +14°C° 0 mm 3 m/S 757 mmHg 84%
    08:00 +15°C° 0 mm 4 m/S 757 mmHg 80%
    09:00 +17°C° 0 mm 4 m/S 758 mmHg 75%
    10:00 +17°C° 0 mm 4 m/S 758 mmHg 71%
    11:00 +17°C° 0 mm 5 m/S 758 mmHg 68%
    12:00 +19°C° 0 mm 5 m/S 758 mmHg 64%
    13:00 +20°C° 0 mm 5 m/S 757 mmHg 61%
    14:00 +19°C° 0 mm 6 m/S 757 mmHg 61%
    15:00 +19°C° 0 mm 6 m/S 757 mmHg 62%
    16:00 +17°C° 0 mm 6 m/S 757 mmHg 62%
    17:00 +16°C° 0 mm 5 m/S 757 mmHg 67%
    18:00 +14°C° 0 mm 4 m/S 758 mmHg 72%
    19:00 +12°C° 0 mm 3 m/S 758 mmHg 77%
    20:00 +12°C° 0 mm 3 m/S 758 mmHg 79%
    21:00 +12°C° 0 mm 2 m/S 759 mmHg 82%
    22:00 +10°C° 0 mm 2 m/S 760 mmHg 85%
    23:00 +10°C° 0 mm 2 m/S 760 mmHg 87%

    21 April, Sonntag

    Zeit Temperatur Niederschläge Wind Luftdruck Luftfeuchtigkeit
    00:00 +11°C° 0 mm 1 m/S 760 mmHg 88%
    01:00 +11°C° 0 mm 1 m/S 760 mmHg 90%
    02:00 +10°C° 0 mm 1 m/S 760 mmHg 90%
    03:00 +10°C° 0 mm 1 m/S 760 mmHg 90%
    04:00 +10°C° 0 mm 1 m/S 761 mmHg 90%
    05:00 +11°C° 0 mm 1 m/S 761 mmHg 87%
    06:00 +12°C° 0 mm 1 m/S 761 mmHg 84%
    07:00 +13°C° 0 mm 1 m/S 762 mmHg 81%
    08:00 +16°C° 0 mm 1 m/S 762 mmHg 71%
    09:00 +19°C° 0 mm 1 m/S 762 mmHg 60%
    10:00 +21°C° 0 mm 2 m/S 762 mmHg 50%
    11:00 +23°C° 0 mm 2 m/S 762 mmHg 45%
    12:00 +25°C° 0 mm 2 m/S 762 mmHg 39%
    13:00 +26°C° 0 mm 3 m/S 762 mmHg 34%
    14:00 +26°C° 0 mm 3 m/S 761 mmHg 37%
    15:00 +26°C° 0 mm 3 m/S 761 mmHg 40%
    16:00 +26°C° 0 mm 3 m/S 761 mmHg 43%
    17:00 +24°C° 0 mm 2 m/S 761 mmHg 54%
    18:00 +21°C° 0 mm 2 m/S 761 mmHg 64%
    19:00 +18°C° 0 mm 2 m/S 762 mmHg 75%
    20:00 +17°C° 0 mm 2 m/S 762 mmHg 78%
    21:00 +16°C° 0 mm 2 m/S 762 mmHg 80%
    22:00 +15°C° 0 mm 2 m/S 763 mmHg 83%
    23:00 +14°C° 0 mm 2 m/S 763 mmHg 83%

    22 April, Montag

    Zeit Temperatur Niederschläge Wind Luftdruck Luftfeuchtigkeit
    00:00 +14°C° 0 mm 2 m/S 763 mmHg 83%
    01:00 +13°C° 0 mm 1 m/S 763 mmHg 83%
    02:00 +13°C° 0 mm 1 m/S 763 mmHg 83%
    03:00 +13°C° 0 mm 1 m/S 763 mmHg 83%
    04:00 +12°C° 0 mm 1 m/S 763 mmHg 83%
    05:00 +13°C° 0 mm 1 m/S 763 mmHg 79%
    06:00 +14°C° 0 mm 1 m/S 764 mmHg 76%
    07:00 +15°C° 0 mm 1 m/S 764 mmHg 72%
    08:00 +19°C° 0 mm 1 m/S 764 mmHg 62%
    09:00 +21°C° 0 mm 1 m/S 764 mmHg 52%
    10:00 +24°C° 0 mm 1 m/S 763 mmHg 43%
    11:00 +25°C° 0 mm 2 m/S 763 mmHg 39%
    12:00 +27°C° 0 mm 2 m/S 763 mmHg 35%
    13:00 +28°C° 0 mm 2 m/S 762 mmHg 31%
    14:00 +28°C° 0 mm 2 m/S 762 mmHg 33%
    15:00 +28°C° 0 mm 2 m/S 762 mmHg 34%
    16:00 +29°C° 0 mm 2 m/S 761 mmHg 36%
    17:00 +26°C° 0 mm 2 m/S 762 mmHg 44%
    18:00 +24°C° 0 mm 2 m/S 762 mmHg 51%
    19:00 +20°C° 0 mm 2 m/S 762 mmHg 59%
    20:00 +19°C° 0 mm 2 m/S 762 mmHg 63%
    21:00 +18°C° 0 mm 2 m/S 762 mmHg 66%
    22:00 +17°C° 0 mm 2 m/S 763 mmHg 70%
    23:00 +17°C° 0 mm 2 m/S 762 mmHg 68%

    23 April, Dienstag

    Zeit Temperatur Niederschläge Wind Luftdruck Luftfeuchtigkeit
    00:00 +17°C° 0 mm 2 m/S 762 mmHg 67%
    01:00 +16°C° 0 mm 1 m/S 762 mmHg 65%
    02:00 +16°C° 0 mm 1 m/S 762 mmHg 62%
    03:00 +16°C° 0 mm 1 m/S 762 mmHg 59%
    04:00 +15°C° 0 mm 1 m/S 762 mmHg 57%
    05:00 +16°C° 0 mm 1 m/S 762 mmHg 56%
    06:00 +18°C° 0 mm 1 m/S 762 mmHg 55%
    07:00 +19°C° 0 mm 1 m/S 762 mmHg 55%
    08:00 +21°C° 0 mm 1 m/S 762 mmHg 49%
    09:00 +23°C° 0 mm 2 m/S 762 mmHg 44%
    10:00 +26°C° 0 mm 2 m/S 762 mmHg 38%
    11:00 +27°C° 0 mm 2 m/S 762 mmHg 35%
    12:00 +29°C° 0 mm 2 m/S 761 mmHg 32%
    13:00 +31°C° 0 mm 2 m/S 761 mmHg 29%
    14:00 +31°C° 0 mm 2 m/S 761 mmHg 30%
    15:00 +31°C° 0 mm 1 m/S 760 mmHg 31%
    16:00 +31°C° 0 mm 1 m/S 760 mmHg 31%
    17:00 +29°C° 0 mm 1 m/S 760 mmHg 38%
    18:00 +26°C° 0 mm 1 m/S 761 mmHg 46%
    19:00 +24°C° 0 mm 1 m/S 761 mmHg 53%
    20:00 +23°C° 0 mm 1 m/S 761 mmHg 56%
    21:00 +21°C° 0 mm 1 m/S 761 mmHg 60%
    22:00 +20°C° 0 mm 1 m/S 762 mmHg 63%
    23:00 +20°C° 0 mm 1 m/S 761 mmHg 64%
    Mehr zeigen